Tracking 22441 objects as of 28-Feb-2021
HD Live streaming from Space Station
objects crossing your sky now

DELTA 1 DEB

Track DELTA 1 DEB now!
10-day predictions


NORAD ID: 42635
Int'l Code: 1975-052LU
Perigee: 1,023.6 km
Apogee: 1,091.7 km
Inclination: 99.9 °
Period: 106.2 minutes
Semi major axis: 7428 km
RCS: Unknown
Launch date: June 12, 1975
Source: United States (US)
Launch site: AIR FORCE WESTERN TEST RANGE (AFWTR)

Note: This is SATELLITE DEBRIS
aabbcc
Your satellite tracking list
Your tracking list is empty




NASA's NSSDC Master Catalog

Two Line Element Set (TLE):
1 42635U 75052LU  21059.45507197  .00000060  00000-0  14998-3 0  9994
2 42635  99.8682 317.7945 0045844  77.0842  96.7538 13.55926877359731
Source of the keplerian elements: AFSPC